Home   Weather   Brades   Past weeks

Flag for Montserrat Past Weather in Brades, Montserrat — Yesterday and Last 2 Weeks

Now
79 °F

Passing clouds.


Feels Like: 81 °F
Forecast: 77 / 81 °F
Wind: 10 mph from East

Location: Vc Bird International Antigua Airport

Current Time: Apr 26, 2017 at 11:30:07 pm

Latest Report: Apr 26, 2017 at 10:00 pm


Visibility: N/A

Pressure: 30.01 "Hg

Humidity: 74%

Dew Point: 70 °F

Location of BradesLocation

Past Weather in Brades — Graph

°F

Brades Temperature Yesterday

Maximum temperature yesterday: 82 °F (at 11:00 am)
Minimum temperature yesterday: 77 °F (at 12:00 am)
Average temperature yesterday: 79 °F

High & Low Weather Summary for the Past Weeks

 TemperatureHumidityPressure
High84 °F (Apr 24, 11:00 am)89% (Apr 24, 9:00 pm)30.04 "Hg (Apr 24, 9:00 pm)
Low75 °F (Apr 19, 3:00 am)55% (Apr 19, 2:00 pm)29.89 "Hg (Apr 21, 4:00 am)
Average79 °F70%29.97 "Hg
* Reported Apr 19 3:00 am — Apr 26 9:00 pm, Brades, Weather by CustomWeather, © 2017

Note: Actual official high and low records may vary slightly from our data, if they occured in-between our weather recording intervals... More about our weather records

Advertising

Brades Weather History for the Previous 24 Hours

Scroll right to see more
 ConditionsComfort  
Time TempWeatherWind HumidityBarometerVisibility
9:00 pm
Wed, Apr 26
77 °FPassing clouds.9 mph79%30.01 "HgN/A
8:00 pm79 °FPassing clouds.10 mph74%29.98 "HgN/A
7:00 pm79 °FPassing clouds.9 mph74%29.98 "HgN/A
6:00 pm79 °FPartly sunny.9 mph74%29.95 "HgN/A
5:00 pm81 °FScattered clouds.9 mph70%29.92 "HgN/A
4:00 pm82 °FScattered clouds.10 mph66%29.92 "HgN/A
3:00 pm82 °FScattered clouds.12 mph70%29.92 "HgN/A
2:00 pm82 °FScattered clouds.12 mph66%29.95 "HgN/A
1:00 pm82 °FScattered clouds.13 mph66%29.95 "HgN/A
12:00 pm82 °FScattered clouds.15 mph70%29.95 "HgN/A
11:00 am82 °FPassing clouds.13 mph70%29.98 "HgN/A
10:00 am82 °FPassing clouds.13 mph66%29.98 "HgN/A
9:00 am81 °FPassing clouds.12 mph70%29.98 "HgN/A
8:00 am79 °FPartly sunny.8 mph74%29.98 "HgN/A
7:00 am79 °FPassing clouds.10 mph70%29.98 "HgN/A
6:00 am77 °FPassing clouds.9 mph74%29.95 "HgN/A
5:00 am77 °FPassing clouds.8 mph74%29.95 "HgN/A
4:00 am77 °FPassing clouds.9 mph74%29.95 "HgN/A
3:00 am77 °FPassing clouds.9 mph74%29.95 "HgN/A
1:00 am77 °FPassing clouds.9 mph74%29.95 "HgN/A
12:00 am77 °FPassing clouds.10 mph74%29.98 "HgN/A
11:00 pm
Tue, Apr 25
77 °FPassing clouds.9 mph74%29.98 "HgN/A
Weather by CustomWeather, © 2017

See weather overviewHow to use our weather pages